Location: Holyhead Bay
(53.3667°N, 4.6667°W)
Time: 11:22:18
(UTC+00:00)

Cosmos 2360 Rocket - Pass Details

Date: 15 April 2021
Orbit: 833 x 845 km, 71.0° (Epoch: 08 May)

Event Time Altitude Azimuth Distance (km) Brightness Sun altitude
Rises 21:19:19 0° 320° (NW) 3,415 7.2 -16.0°
Reaches altitude 10° 21:22:28 10° 303° (WNW) 2,473 5.9 -16.4°
Maximum altitude 21:26:14 19° 261° (W) 1,927 4.5 -16.8°
Drops below altitude 10° 21:30:00 10° 218° (SW) 2,456 4.5 -17.2°
Sets 21:33:08 0° 201° (SSW) 3,383 5.1 -17.5°
